Change the Weather History Date:

Tuesday, October 30, 2012

  Actual Average Record
Temperature  
Mean Temperature 39 °F -  
Max Temperature 41 °F 58 °F 78 °F (1971)
Min Temperature 37 °F 36 °F 20 °F (1966)
Degree Days  
Heating Degree Days 26    
Moisture  
Dew Point 32 °F    
Average Humidity 80    
Maximum Humidity 93    
Minimum Humidity 49    
Precipitation  
Precipitation 0.14 in - - ()
Sea Level Pressure  
Sea Level Pressure 29.68 in    
Wind  
Wind Speed 18 mph (NNW)    
Max Wind Speed 26 mph    
Max Gust Speed 34 mph    
Visibility 10 miles    
Events Rain    
Averages and records for this station are not official NWS values.
T = Trace of Precipitation, MM = Missing Value Source: NWS Daily Summary

Daily Weather History Graph

Daily Weather History Graph

Search for Another Location

Airport or City:

Trip Planner

Search our weather history database for the weather conditions in past years. The results will help you decide how hot, cold, wet, or windy it might be!

Date:

Astronomy

Oct. 30, 2012 Rise Set
Actual Time 8:12 AM EDT 6:40 PM EDT
Civil Twilight 7:44 AM EDT 7:09 PM EDT
Nautical Twilight 7:11 AM EDT 7:41 PM EDT
Astronomical Twilight 6:39 AM EDT 8:13 PM EDT
Moon 7:08 PM EDT (10/30) 8:59 AM EDT (10/30)
Length of Visible Light 11h 24m
Length of Day
10h 27m
Full, 99% of the Moon is Illuminated
Oct 30
Full
Nov 6
Last Quarter
Nov 13
New
Nov 20
First Quarter
Nov 28
Full

Hourly Weather History & Observations

Time (EDT) Temp. Windchill Dew Point Humidity Pressure Visibility Wind Dir Wind Speed Gust Speed Precip Events Conditions
12:35 AM 41.0 °F 31.9 °F 23.0 °F 49% 29.85 in 10.0 mi NNW 19.6 mph 26.5 mph N/A   Clear
12:55 AM 41.0 °F 32.2 °F 23.0 °F 49% 29.84 in 10.0 mi NNW 18.4 mph 28.8 mph N/A   Clear
1:15 AM 41.0 °F 32.5 °F 23.0 °F 49% 29.82 in 10.0 mi NNW 17.3 mph 28.8 mph N/A   Clear
1:35 AM 39.2 °F 29.6 °F 23.0 °F 52% 29.82 in 10.0 mi NNW 19.6 mph 32.2 mph N/A   Clear
1:55 AM 39.2 °F 29.6 °F 24.8 °F 56% 29.80 in 10.0 mi NNW 19.6 mph 26.5 mph N/A   Clear
2:15 AM 39.2 °F 29.6 °F 24.8 °F 56% 29.79 in 10.0 mi NNW 19.6 mph 25.3 mph N/A   Clear
2:35 AM 39.2 °F 29.3 °F 26.6 °F 61% 29.78 in 10.0 mi NNW 20.7 mph 31.1 mph N/A   Clear
3:15 AM 39.2 °F 29.0 °F 26.6 °F 61% 29.76 in 10.0 mi NNW 21.9 mph 29.9 mph N/A   Mostly Cloudy
3:35 AM 41.0 °F 32.5 °F 26.6 °F 57% 29.75 in 10.0 mi NNW 17.3 mph 31.1 mph N/A   Mostly Cloudy
3:55 AM 41.0 °F 30.9 °F 26.6 °F 57% 29.74 in 10.0 mi NNW 24.2 mph 31.1 mph N/A   Mostly Cloudy
4:35 AM 41.0 °F 30.5 °F 26.6 °F 57% 29.72 in 10.0 mi NNW 26.5 mph 34.5 mph N/A   Overcast
4:55 AM 41.0 °F 30.7 °F 26.6 °F 57% 29.71 in 10.0 mi NNW 25.3 mph 31.1 mph N/A   Overcast
5:15 AM 41.0 °F 32.8 °F 26.6 °F 57% 29.71 in 10.0 mi NNW 16.1 mph 31.1 mph N/A   Overcast
5:35 AM 41.0 °F 31.6 °F 26.6 °F 57% 29.70 in 10.0 mi NNW 20.7 mph 27.6 mph N/A   Overcast
6:15 AM 41.0 °F 31.1 °F 28.4 °F 61% 29.69 in 10.0 mi NNW 23.0 mph 34.5 mph N/A   Overcast
6:35 AM 41.0 °F 31.9 °F 28.4 °F 61% 29.68 in 10.0 mi NNW 19.6 mph 28.8 mph N/A   Light Drizzle
6:55 AM 39.2 °F 29.8 °F 32.0 °F 75% 29.68 in 10.0 mi NNW 18.4 mph 33.4 mph N/A Rain Light Rain
7:15 AM 37.4 °F 27.5 °F 32.0 °F 81% 29.68 in 10.0 mi NNW 18.4 mph 25.3 mph N/A Rain Light Rain
7:35 AM 37.4 °F 27.8 °F 32.0 °F 81% 29.67 in 10.0 mi NNW 17.3 mph 26.5 mph N/A Rain Light Rain
7:55 AM 37.4 °F 28.2 °F 33.8 °F 87% 29.67 in 10.0 mi NNW 16.1 mph 27.6 mph 0.01 in Rain Light Rain
8:15 AM 37.4 °F 28.2 °F 33.8 °F 87% 29.66 in 10.0 mi NNW 16.1 mph 27.6 mph 0.01 in Rain Rain
8:35 AM 37.4 °F 27.2 °F 33.8 °F 87% 29.65 in 10.0 mi NNW 19.6 mph 27.6 mph 0.01 in Rain Light Rain
8:55 AM 37.4 °F 27.8 °F 33.8 °F 87% 29.65 in 10.0 mi NNW 17.3 mph 26.5 mph 0.02 in Rain Light Rain
9:35 AM 37.4 °F 26.9 °F 33.8 °F 87% 29.64 in 10.0 mi North 20.7 mph 28.8 mph 0.01 in Rain Light Rain
9:55 AM 37.4 °F 27.8 °F 33.8 °F 87% 29.64 in 10.0 mi NNW 17.3 mph 25.3 mph 0.01 in Rain Light Rain
10:15 AM 37.4 °F 26.9 °F 33.8 °F 87% 29.64 in 10.0 mi North 20.7 mph 29.9 mph 0.01 in Rain Light Rain
10:35 AM 37.4 °F 28.5 °F 33.8 °F 87% 29.64 in 10.0 mi North 15.0 mph 25.3 mph 0.01 in Rain Light Rain
10:55 AM 37.4 °F 27.8 °F 33.8 °F 87% 29.64 in 10.0 mi North 17.3 mph 21.9 mph 0.02 in Rain Light Rain
11:35 AM 37.4 °F 27.8 °F 33.8 °F 87% 29.64 in 10.0 mi NNW 17.3 mph 24.2 mph 0.02 in Rain Rain
11:55 AM 37.4 °F 28.5 °F 33.8 °F 87% 29.64 in 10.0 mi NNW 15.0 mph 27.6 mph 0.03 in Rain Rain
12:15 PM 37.4 °F 29.3 °F 35.6 °F 93% 29.64 in 10.0 mi NNW 12.7 mph 21.9 mph N/A Rain Rain
12:55 PM 37.4 °F 28.9 °F 35.6 °F 93% 29.64 in 10.0 mi North 13.8 mph 24.2 mph 0.02 in Rain Light Rain
1:15 PM 37.4 °F 28.5 °F 35.6 °F 93% 29.63 in 10.0 mi NNW 15.0 mph 21.9 mph 0.01 in Rain Light Rain
1:35 PM 37.4 °F 28.9 °F 35.6 °F 93% 29.63 in 10.0 mi NNW 13.8 mph 25.3 mph 0.02 in Rain Light Rain
1:55 PM 39.2 °F 30.8 °F 35.6 °F 87% 29.63 in 10.0 mi NNW 15.0 mph 26.5 mph 0.02 in Rain Light Rain
2:15 PM 39.2 °F 32.0 °F 35.6 °F 87% 29.62 in 10.0 mi NNW 11.5 mph 23.0 mph N/A Rain Light Rain
2:35 PM 37.4 °F 27.8 °F 35.6 °F 93% 29.62 in 10.0 mi NNW 17.3 mph 20.7 mph N/A   Light Drizzle
2:55 PM 39.2 °F 31.2 °F 35.6 °F 87% 29.62 in 10.0 mi NNW 13.8 mph 23.0 mph N/A   Light Drizzle
3:35 PM 39.2 °F 32.0 °F 35.6 °F 87% 29.62 in 10.0 mi NNW 11.5 mph 18.4 mph N/A Rain Light Rain
3:55 PM 39.2 °F 30.8 °F 35.6 °F 87% 29.62 in 10.0 mi NNW 15.0 mph 20.7 mph N/A Rain Light Rain
4:15 PM 39.2 °F 30.8 °F 35.6 °F 87% 29.63 in 10.0 mi NNW 15.0 mph 21.9 mph N/A Rain Light Rain
4:35 PM 37.4 °F 28.2 °F 35.6 °F 93% 29.63 in 4.0 mi NNW 16.1 mph 21.9 mph N/A Rain Light Rain
4:55 PM 37.4 °F 28.5 °F 35.6 °F 93% 29.63 in 5.0 mi NNW 15.0 mph 23.0 mph N/A Rain Light Rain
5:35 PM 37.4 °F 28.5 °F 35.6 °F 93% 29.64 in 10.0 mi NNW 15.0 mph 26.5 mph 0.01 in Rain Light Rain
5:55 PM 37.4 °F 28.5 °F 35.6 °F 93% 29.65 in 10.0 mi NNW 15.0 mph 24.2 mph 0.01 in   Overcast
6:15 PM 37.4 °F 28.5 °F 35.6 °F 93% 29.65 in 10.0 mi NW 15.0 mph 24.2 mph N/A   Light Drizzle
6:35 PM 37.4 °F 28.2 °F 35.6 °F 93% 29.65 in 10.0 mi NNW 16.1 mph 25.3 mph N/A   Overcast
7:15 PM 37.4 °F 28.5 °F 35.6 °F 93% 29.67 in 10.0 mi NNW 15.0 mph 24.2 mph N/A   Light Drizzle
7:35 PM 37.4 °F 28.5 °F 35.6 °F 93% 29.67 in 10.0 mi NNW 15.0 mph 21.9 mph N/A   Drizzle
8:15 PM 37.4 °F 28.5 °F 35.6 °F 93% 29.68 in 10.0 mi NNW 15.0 mph 23.0 mph N/A Rain Light Rain
8:35 PM 37.4 °F 28.9 °F 35.6 °F 93% 29.68 in 10.0 mi NW 13.8 mph 20.7 mph N/A Rain Light Rain
9:15 PM 37.4 °F 27.8 °F 35.6 °F 93% 29.68 in 10.0 mi NNW 17.3 mph 23.0 mph N/A   Overcast
9:35 PM 37.4 °F 29.8 °F 35.6 °F 93% 29.68 in 10.0 mi NNW 11.5 mph 25.3 mph N/A Rain Light Rain
9:55 PM 37.4 °F 29.8 °F 35.6 °F 93% 29.68 in 10.0 mi NNW 11.5 mph 26.5 mph N/A Rain Rain
10:15 PM 37.4 °F 28.5 °F 35.6 °F 93% 29.68 in 10.0 mi NNW 15.0 mph 23.0 mph N/A Rain Rain
10:35 PM 37.4 °F 28.2 °F 35.6 °F 93% 29.68 in 10.0 mi NNW 16.1 mph 23.0 mph N/A Rain Light Rain
10:55 PM 37.4 °F 28.9 °F 33.8 °F 87% 29.68 in 10.0 mi NW 13.8 mph 25.3 mph N/A Rain Light Rain
11:15 PM 37.4 °F 28.2 °F 35.6 °F 93% 29.67 in 10.0 mi NW 16.1 mph 23.0 mph N/A   Drizzle
11:35 PM 37.4 °F 29.8 °F 33.8 °F 87% 29.68 in 10.0 mi NNW 11.5 mph 25.3 mph N/A Rain Light Rain